Theta_e
286 285 286 288 287 287 287 287 286 287 287 287 285 287 288 286 283 280 285 288 288 289 298 304 305 306 308 310 310 311 312 313 314 315 316 316 317 318 319 320 321 321 322 323 326 329 331 332 334 336 338 339 343 343 343 343 343 343 344 343 343 343 344 344 345 346 346 346 346 346 346 345 345 344 344 343 343 342 342 342 343 343 343 341 340 341 343
285 286 287 288 286 287 286 286 287 287 286 287 288 286 287 287 286 287 288 288 289 294 301 305 306 308 309 310 311 311 310 311 312 312 314 315 316 317 318 319 321 322 322 324 325 328 330 330 332 334 336 339 339 341 343 343 344 345 345 344 343 343 343 344 346 347 347 348 347 347 346 346 346 346 345 344 343 342 342 342 342 344 344 344 342 341 341
284 286 289 286 287 287 285 285 286 286 286 286 286 286 289 293 289 291 293 290 289 293 304 307 307 308 310 309 308 308 309 310 311 311 312 314 315 316 317 318 320 321 322 323 325 327 328 330 331 332 335 338 338 339 340 343 345 346 346 345 344 344 344 345 346 348 348 348 349 348 347 347 347 347 346 346 345 344 344 343 342 343 343 342 342 343 342
279 283 285 285 286 286 284 283 284 285 285 286 287 287 289 289 288 290 294 292 294 301 305 308 306 307 307 306 307 307 307 309 310 310 311 312 314 315 316 317 319 319 320 322 323 325 327 329 330 332 334 335 336 337 339 340 343 347 347 346 345 345 346 347 347 348 348 349 349 349 349 348 348 348 348 347 347 346 345 344 344 344 342 342 343 343 343
277 281 285 285 284 279 280 283 285 287 287 289 288 288 292 293 293 292 291 293 300 301 306 304 304 305 306 307 307 307 308 308 309 309 310 311 313 315 316 317 318 318 319 321 322 324 327 329 330 332 334 334 335 336 339 340 344 347 348 347 346 346 347 347 348 348 349 349 349 349 349 349 349 349 349 348 347 347 346 346 345 344 344 343 343 343 343
277 281 283 285 277 274 276 286 290 290 287 288 286 286 289 291 299 295 300 300 301 302 302 302 302 304 305 307 310 312 309 308 308 309 310 311 313 315 316 317 318 319 320 321 322 324 326 329 330 332 335 334 334 337 339 343 344 345 348 349 348 347 348 348 349 349 350 350 349 350 351 350 350 350 349 349 349 349 349 349 347 346 345 344 344 344 344
278 281 282 279 274 275 285 290 292 293 291 291 288 289 295 298 299 299 299 300 300 301 302 302 303 304 308 310 309 310 312 310 309 308 309 310 312 313 315 316 317 319 320 321 322 323 325 328 329 331 332 334 335 337 339 342 343 343 345 348 350 350 349 349 350 350 350 350 350 351 351 351 351 350 350 350 350 350 350 349 348 348 347 346 346 345 345
279 278 276 272 274 282 288 289 294 299 295 296 293 292 297 298 298 298 298 299 300 301 302 303 304 304 305 309 309 309 310 312 311 309 309 310 312 313 315 315 317 318 319 321 322 323 328 327 328 329 329 332 335 337 340 341 344 342 343 344 344 346 349 351 351 351 351 351 351 352 352 352 351 351 351 351 350 351 351 351 351 351 351 350 349 348 347
277 278 276 276 283 284 286 288 291 293 290 292 290 286 289 298 298 299 298 299 300 301 302 302 303 304 306 304 306 307 307 308 312 312 312 312 313 314 315 316 318 320 320 321 323 325 326 326 328 327 328 332 334 338 339 341 343 343 343 342 342 344 345 346 348 351 353 352 352 352 353 352 352 352 351 351 352 353 351 351 351 350 351 351 351 351 350
280 279 275 276 276 274 279 287 295 297 297 296 296 293 289 297 297 299 298 298 299 299 301 301 302 303 304 301 302 305 307 308 309 312 314 314 314 315 315 317 318 319 321 322 324 325 324 325 325 325 327 331 333 338 340 341 343 343 341 339 340 341 344 346 348 348 350 351 352 353 353 352 352 352 353 353 353 354 351 351 350 351 351 351 352 352 351
280 280 276 273 270 277 283 288 293 296 297 296 297 289 284 295 295 297 298 298 299 299 299 300 302 299 296 297 300 304 306 307 309 309 312 314 314 314 315 315 316 318 320 322 324 324 323 323 323 324 326 329 330 336 339 339 342 339 338 338 338 338 339 341 344 349 351 350 351 352 353 353 354 353 353 353 354 354 353 353 352 353 353 352 352 352 352
281 279 275 275 279 275 285 290 294 296 296 297 290 279 280 293 294 298 299 298 299 299 300 301 299 297 294 296 300 306 307 308 308 309 311 312 313 313 314 316 317 319 321 321 321 321 322 322 322 323 324 325 328 331 333 336 336 333 332 333 335 336 337 337 340 345 349 352 355 356 355 355 355 355 355 355 355 354 354 353 353 353 352 352 351 351 352
284 285 278 279 282 289 292 291 295 295 297 294 281 277 285 293 295 298 299 299 300 300 299 299 296 299 301 302 304 306 307 307 307 309 311 312 313 313 314 315 319 318 319 320 320 321 322 322 321 322 323 322 324 327 330 333 331 331 331 331 334 336 336 335 336 339 345 350 351 355 357 357 357 356 356 355 355 354 353 353 353 352 352 352 351 351 352
278 279 279 279 282 287 293 294 295 296 292 281 279 288 293 292 296 299 300 299 300 300 299 299 298 300 301 303 304 305 306 306 307 307 309 311 312 313 315 317 318 316 317 319 321 322 322 320 320 321 321 321 323 324 326 328 328 330 331 331 333 334 334 333 334 337 341 347 351 352 355 357 357 356 357 357 356 355 354 354 353 352 352 352 351 351 352
283 283 281 278 273 284 296 296 293 297 286 285 289 293 294 298 298 298 298 299 300 300 298 299 299 300 300 301 301 303 304 305 305 306 307 308 310 310 311 312 315 317 316 317 319 320 322 321 320 321 320 320 320 322 323 325 326 327 328 330 331 331 332 333 335 339 342 344 348 352 353 354 355 355 357 357 356 356 355 354 353 352 352 352 351 351 351
279 280 277 277 283 288 295 291 285 290 295 294 295 294 293 297 297 297 297 298 299 299 298 298 298 299 299 300 301 302 303 304 305 306 307 308 310 311 312 313 314 316 315 316 317 320 322 322 321 320 320 319 319 320 321 324 325 326 325 326 327 328 331 332 335 338 341 344 346 350 353 353 353 353 354 356 356 356 355 354 352 351 351 351 351 350 349
281 280 282 286 288 293 295 293 291 292 295 297 297 296 296 295 295 297 296 296 297 298 298 298 298 297 298 299 301 301 302 303 304 305 306 307 308 310 311 312 315 315 314 315 316 318 320 322 322 320 320 318 318 318 321 323 324 323 323 323 324 325 327 330 333 337 340 343 344 347 351 353 352 351 352 354 354 355 355 354 353 351 351 351 350 350 350
287 289 290 291 290 291 293 296 296 295 296 297 297 297 295 295 295 296 295 296 296 297 297 296 296 297 298 298 299 301 302 303 304 306 307 307 308 309 310 311 312 314 314 315 315 316 318 321 322 321 319 319 318 318 321 322 322 322 322 322 322 324 326 328 331 334 336 339 342 346 349 351 352 352 351 352 352 353 354 353 353 352 351 351 350 350 350
285 281 286 290 291 292 293 294 295 297 297 296 296 295 295 295 296 296 297 296 296 297 297 296 296 297 298 298 300 301 302 302 303 303 304 306 307 307 308 310 313 312 313 313 315 316 316 318 320 319 318 318 319 320 320 320 321 320 320 321 323 324 325 327 329 331 333 337 342 346 348 350 351 352 352 351 351 351 352 353 353 352 352 351 350 350 349
284 285 287 289 291 292 293 293 292 293 294 295 296 297 296 297 297 297 297 297 296 297 296 297 297 297 299 299 299 300 301 301 302 303 304 305 306 307 308 309 312 313 313 313 313 315 316 317 318 319 318 318 319 319 319 319 319 319 319 320 321 322 324 325 327 329 332 339 342 343 345 347 348 350 351 351 351 350 351 352 352 351 352 351 350 350 350
287 289 292 293 292 292 293 294 294 295 294 294 294 295 295 296 296 296 297 298 297 297 297 298 298 298 298 299 300 300 300 301 302 302 303 304 305 306 307 308 311 311 312 314 314 315 316 317 318 318 318 319 319 319 319 319 318 317 318 319 321 321 322 324 326 331 334 338 340 342 343 344 347 350 351 351 351 352 354 355 354 353 352 352 353 353 353
283 285 288 289 286 285 287 289 292 294 295 295 294 294 295 296 296 296 296 297 298 299 299 299 299 298 298 299 300 300 300 301 302 303 303 304 304 305 307 308 309 311 314 314 314 315 316 317 318 318 319 319 319 319 319 318 318 316 318 318 319 321 322 324 327 329 332 335 337 339 341 342 344 348 343 329 340 353 352 340 334 330 330 351 355 355 353
284 290 292 291 291 289 291 292 293 294 294 294 294 294 295 296 296 297 296 296 297 297 298 300 299 299 298 299 300 299 300 300 302 303 303 303 303 304 306 307 307 308 310 314 315 316 317 318 318 319 319 319 318 319 318 318 317 316 317 317 319 320 322 323 325 327 329 330 332 335 339 341 342 343 347 346 318 317 330 339 329 320 315 319 324 331 350
292 293 291 292 292 291 292 292 294 294 295 295 295 296 296 297 297 297 297 297 297 297 298 299 301 300 299 299 299 298 299 300 301 302 303 303 304 305 306 306 307 308 309 311 314 315 317 318 317 318 318 318 318 317 317 316 316 316 316 316 317 318 319 321 324 326 328 330 332 334 337 340 341 342 345 347 349 324 314 316 316 312 313 313 313 315 320
293 296 294 293 293 294 294 294 295 295 297 298 295 296 297 297 297 298 297 298 299 298 298 298 298 299 298 298 299 299 299 300 302 303 305 306 306 306 306 306 307 308 310 312 314 315 316 316 317 318 317 316 317 316 315 315 315 315 315 316 316 317 319 321 323 326 329 331 333 335 337 338 339 341 343 346 347 348 344 314 308 308 307 308 309 310 311
297 294 293 294 294 294 295 296 296 296 297 298 299 299 302 304 302 301 299 299 298 298 298 297 297 298 299 299 299 300 300 300 303 305 303 303 303 304 305 306 307 308 309 310 311 314 315 317 317 316 316 316 314 314 314 314 314 314 315 315 316 317 319 322 324 327 330 331 332 332 334 337 338 340 342 344 348 350 348 347 343 327 313 306 304 307 307
297 296 295 294 293 293 294 294 294 295 296 297 297 297 297 297 301 301 299 299 298 299 299 299 299 299 300 301 302 302 301 302 304 303 303 303 304 305 305 306 307 308 310 310 311 313 316 319 318 316 314 313 313 314 314 313 313 313 314 315 316 320 325 326 324 326 327 327 328 329 332 333 336 339 341 344 347 349 351 348 347 347 349 348 320 304 321
297 296 296 293 292 293 293 296 297 297 297 297 297 297 297 297 297 297 297 297 298 298 299 299 299 298 298 299 299 299 301 301 301 303 303 304 304 305 306 306 306 307 308 310 310 313 317 316 314 312 311 312 314 314 313 312 312 313 313 314 315 317 318 319 321 323 324 324 326 328 330 333 336 338 340 341 343 348 347 348 348 348 348 351 352 326 309
297 296 296 297 296 295 294 294 295 296 295 296 298 297 297 296 296 296 296 297 298 298 298 298 299 300 299 299 300 299 300 301 301 302 303 304 306 305 306 307 307 308 309 310 311 313 313 311 310 310 311 313 313 313 312 312 312 312 313 314 314 315 316 318 320 321 322 324 325 328 330 332 335 338 339 340 342 345 349 351 349 350 350 351 344 339 328
296 296 296 296 296 296 295 295 295 296 296 296 295 296 296 296 295 295 296 297 297 297 298 299 299 299 300 300 301 301 301 301 302 303 303 304 305 306 306 307 308 308 309 310 311 310 310 309 310 309 310 312 312 312 312 311 312 312 313 314 314 315 316 318 319 320 321 322 325 328 332 334 336 338 339 340 341 343 345 347 349 349 349 350 342 348 346
295 295 295 295 294 294 295 295 295 295 295 295 295 295 296 296 295 295 296 297 298 298 299 299 299 300 301 301 302 303 303 303 303 304 304 305 305 306 307 308 307 308 309 310 310 310 309 309 309 309 310 311 311 311 311 311 312 312 313 314 314 315 315 316 318 320 321 322 327 330 332 335 338 338 337 337 338 340 342 344 346 347 347 349 349 347 349
294 293 293 293 293 293 293 294 294 294 295 295 294 295 295 295 294 295 296 297 298 299 300 300 301 301 301 301 302 303 304 304 304 304 304 305 306 306 308 309 310 312 312 312 310 310 309 309 308 309 310 311 311 311 311 311 312 312 312 314 313 314 315 316 319 319 320 324 327 326 328 328 331 336 337 338 338 339 340 341 342 343 344 345 345 348 345
293 291 292 292 293 293 293 293 293 294 294 294 294 295 295 296 297 298 298 299 300 301 300 300 301 301 301 301 301 302 304 304 304 304 304 305 306 307 309 311 312 312 310 310 310 309 308 307 307 309 310 310 310 310 311 311 312 312 313 312 312 313 318 317 317 317 319 321 321 323 324 325 325 326 328 332 336 338 339 339 340 340 341 342 343 334 332
294 294 293 293 294 293 292 293 293 294 293 294 294 295 296 297 298 299 299 300 300 300 300 301 301 301 301 301 302 304 305 304 304 304 304 305 306 308 310 312 309 308 307 308 308 308 307 308 308 309 310 310 310 310 311 311 312 313 312 312 312 313 315 316 316 316 316 316 318 319 320 321 320 321 323 323 325 331 336 338 338 339 339 339 326 319 314
297 296 295 293 294 294 295 294 292 293 294 294 294 295 297 297 298 299 301 300 299 300 301 302 301 301 300 300 301 301 304 305 305 305 306 308 309 309 308 306 306 306 305 306 306 307 307 307 308 309 310 309 309 309 310 310 312 313 311 311 313 314 315 315 314 313 313 314 315 316 316 316 317 318 318 318 318 320 322 325 324 327 328 325 319 318 314
296 295 295 293 293 294 296 295 295 295 296 295 295 296 297 298 299 300 300 300 301 301 301 301 301 300 299 299 299 300 300 302 305 306 308 309 309 308 307 305 305 304 304 304 306 307 307 307 309 310 309 308 308 309 309 311 313 311 310 311 311 312 313 313 312 312 312 312 312 313 313 314 314 314 313 313 313 313 314 314 314 314 314 314 314 313 312
296 295 295 294 294 295 294 295 296 295 295 296 297 297 298 299 300 301 301 301 301 301 301 300 299 299 298 298 299 300 300 301 302 303 303 304 306 306 306 305 305 304 304 302 304 307 307 307 308 309 307 307 307 307 309 312 311 309 309 308 309 310 310 310 310 309 309 310 310 310 312 311 309 309 310 309 309 310 310 309 308 308 308 308 308 308 307
296 296 295 295 295 294 295 295 297 298 298 297 297 298 300 299 300 300 300 300 300 300 301 300 299 299 299 299 298 298 299 300 301 302 302 302 303 302 302 302 302 303 301 301 305 307 308 307 307 306 305 306 306 306 308 311 311 307 307 307 308 308 308 308 308 308 308 307 308 307 307 307 307 307 307 306 306 307 306 305 305 304 303 304 304 304 304
297 297 297 296 296 296 295 297 297 298 298 296 296 296 299 301 301 301 300 299 299 301 300 300 299 299 298 297 296 296 298 299 300 301 301 302 302 301 300 301 302 303 304 306 305 306 307 306 305 304 304 305 305 306 308 310 309 307 306 306 307 307 306 306 306 306 306 306 306 305 305 305 305 305 305 305 305 304 305 304 303 302 300 300 300 300 300
297 297 296 296 296 295 295 295 295 296 297 297 296 296 298 299 300 300 299 299 299 301 299 300 298 297 297 296 296 296 297 297 298 299 300 301 301 301 301 301 303 304 306 306 305 306 307 307 305 303 303 304 305 306 307 308 307 306 305 305 305 305 305 305 304 304 303 303 303 304 303 303 303 303 303 303 302 302 302 301 300 300 299 299 298 298 298
298 297 296 296 296 296 295 295 295 295 296 296 296 297 298 299 300 299 299 299 299 300 299 299 298 297 296 296 296 297 298 299 299 298 299 299 298 298 298 297 301 304 305 305 305 305 305 304 305 304 303 304 305 306 305 306 305 304 305 305 304 304 304 303 303 302 302 302 302 301 300 301 301 300 301 300 299 299 300 299 299 298 297 297 297 297 297
298 297 297 296 296 296 296 296 296 295 296 296 298 298 297 299 299 299 299 300 299 299 298 298 299 297 297 297 297 297 297 297 299 299 299 298 297 297 297 297 302 304 305 304 304 304 304 303 303 304 304 304 305 305 304 304 302 303 303 303 303 303 303 302 302 302 302 301 300 300 300 300 299 299 299 298 298 298 298 297 297 297 297 297 296 296 295
299 298 297 297 297 296 296 296 296 296 296 297 297 297 297 298 299 300 300 299 298 298 297 297 298 298 298 296 296 295 295 296 296 297 299 299 299 300 299 299 301 304 304 304 303 302 303 303 303 303 305 303 303 304 303 301 301 302 302 303 303 302 302 302 301 301 301 300 300 299 299 298 298 297 297 297 297 297 297 296 296 296 296 295 295 295 295
301 299 298 298 297 298 297 297 297 296 295 296 297 296 296 297 298 299 298 298 297 297 296 295 296 296 297 297 296 295 295 295 296 296 297 298 300 301 302 302 302 303 303 303 303 302 302 303 303 303 304 303 303 302 301 300 300 300 301 301 301 301 300 300 300 300 300 300 299 299 299 299 298 297 297 297 296 296 296 296 296 295 295 295 294 294 294
300 299 299 298 299 299 297 297 296 295 296 297 297 297 297 297 297 298 298 298 298 297 297 297 296 297 297 296 296 295 295 295 295 296 294 294 294 295 301 302 303 302 303 302 302 302 302 302 302 303 302 302 301 301 299 299 299 299 299 300 300 300 300 299 299 299 299 299 299 299 299 298 298 298 298 298 298 296 296 296 295 295 295 295 294 293 293
300 299 300 303 298 297 297 297 297 297 296 296 296 299 299 297 297 298 298 298 298 298 298 298 297 297 298 297 297 296 296 295 295 296 296 296 296 297 301 301 302 302 302 301 301 301 301 302 301 301 301 301 300 299 298 298 298 297 297 298 298 299 298 298 298 298 298 298 297 297 297 297 298 297 297 296 296 296 296 297 296 295 295 295 294 295 294
300 300 300 299 297 298 298 298 298 297 295 295 295 295 298 298 299 298 298 299 299 299 299 299 299 299 299 299 298 296 295 294 294 295 296 297 299 300 300 300 300 300 300 300 300 300 300 301 301 300 300 300 299 298 297 297 296 296 296 296 296 297 297 297 296 296 297 297 298 298 298 297 296 296 296 296 296 296 296 295 294 294 295 295 295 295 294
300 300 298 298 298 298 299 299 297 294 293 294 294 298 298 298 298 299 300 300 300 300 300 299 300 300 300 300 300 299 298 296 293 294 297 296 297 298 299 299 299 299 299 298 299 300 300 299 299 299 299 299 298 297 297 297 296 296 295 295 295 295 295 295 295 295 296 296 295 295 294 294 295 295 295 295 294 294 294 294 294 295 294 294 294 293 294
301 300 300 300 299 298 297 297 297 299 295 298 299 298 300 300 299 299 300 299 298 299 298 299 299 299 299 301 300 299 300 301 297 295 298 298 296 296 297 299 299 299 298 298 297 297 299 298 298 298 298 298 296 296 296 296 296 296 296 296 295 295 294 294 295 295 295 295 295 295 295 294 294 294 294 294 294 294 295 294 294 294 294 294 294 294 294
301 301 299 298 297 297 298 298 297 296 297 300 297 299 300 299 297 297 300 298 299 299 295 296 297 298 298 298 298 299 300 300 300 299 299 298 297 296 296 297 297 298 297 296 296 296 298 298 297 298 298 297 296 296 296 295 295 296 295 296 296 295 295 295 295 295 295 295 295 295 295 294 294 295 295 294 294 294 294 294 294 294 294 294 293 293 293
301 300 299 300 299 299 298 298 297 298 298 299 298 302 300 300 299 299 300 299 297 298 295 296 296 297 297 298 299 300 300 300 300 301 299 297 297 298 297 296 296 296 295 295 295 295 295 296 296 296 296 296 296 296 296 296 296 296 296 296 296 296 295 295 294 293 293 294 293 293 293 293 293 293 293 294 294 293 293 293 293 293 292 292 292 292 292
301 299 298 298 297 297 297 297 299 299 299 301 301 301 302 301 301 300 299 300 297 295 295 295 295 297 298 298 300 299 300 299 299 298 299 298 297 295 296 296 294 295 294 293 293 294 294 296 297 297 296 295 295 295 297 297 295 296 295 296 296 296 296 295 295 293 293 293 293 292 292 292 292 291 292 292 292 292 292 292 292 292 292 292 292 292 291
Wind_Speed
3 2 2 2 3 1 2 3 2 3 4 4 3 2 1 3 2 3 3 3 2 2 7 6 5 5 5 7 9 8 8 10 11 13 14 14 14 13 13 13 13 14 13 12 12 12 11 12 14 12 10 10 5 8 11 11 13 14 13 13 13 14 14 14 14 14 13 12 11 11 12 11 11 11 11 11 10 10 10 10 9 10 11 10 10 10 9
2 2 2 1 3 2 3 3 3 3 3 4 1 3 3 3 2 3 4 4 4 0 5 4 6 5 5 6 4 6 12 13 12 13 13 13 13 13 13 13 12 11 11 11 10 12 12 13 13 12 11 10 8 9 4 10 12 12 12 13 13 14 15 15 14 13 13 12 11 11 12 12 12 12 11 10 10 11 11 11 10 10 9 10 10 11 10
0 1 3 2 0 0 3 5 5 6 5 3 3 1 2 1 0 1 1 1 1 1 1 2 3 2 2 5 9 10 8 11 13 12 12 12 11 12 12 12 12 10 10 11 11 12 12 12 10 9 9 8 8 7 8 8 5 11 13 13 14 15 16 15 14 13 12 12 12 12 13 12 11 11 12 11 10 10 10 10 10 10 9 11 11 10 11
0 2 1 3 3 2 2 3 3 3 2 0 1 1 1 1 2 2 1 1 1 2 6 2 3 4 8 8 7 8 8 9 10 12 12 12 12 12 12 12 12 13 13 12 12 11 10 10 10 9 9 9 8 8 8 8 8 7 12 14 15 15 15 14 13 13 13 13 13 13 12 13 12 12 11 10 10 10 10 11 10 9 10 11 11 10 9
1 3 1 4 3 2 3 2 4 2 1 0 2 3 2 2 0 0 0 1 2 4 4 4 5 6 5 6 7 6 7 6 7 10 11 11 11 11 11 12 13 13 13 12 11 10 10 9 10 9 7 8 7 8 7 8 7 7 8 14 14 14 14 14 14 13 13 13 14 13 13 13 12 11 12 12 12 12 13 12 10 10 11 11 11 11 11
2 3 5 1 2 2 2 1 2 1 2 3 4 4 4 4 3 2 1 0 3 5 6 6 6 6 4 3 2 2 4 6 7 8 8 10 11 10 10 10 10 11 11 11 12 11 9 10 11 9 7 6 6 6 6 6 9 9 9 9 12 14 14 15 14 14 14 14 14 14 13 12 12 12 12 13 13 11 11 10 10 12 11 12 12 11 12
2 3 4 3 1 3 1 5 4 3 5 1 5 7 3 3 4 5 4 4 5 5 3 3 4 5 2 1 2 5 5 5 6 7 8 9 11 11 10 11 11 11 11 11 12 13 12 12 11 11 10 8 7 6 6 7 9 10 11 9 7 9 12 13 13 13 14 14 14 14 13 12 12 12 13 12 12 11 9 10 12 12 13 13 12 13 13
1 3 2 1 1 2 4 6 5 3 2 2 0 1 1 3 4 2 1 4 3 4 4 3 4 5 6 4 3 6 6 6 5 7 8 9 9 11 11 11 11 11 11 11 11 13 12 11 10 11 11 10 9 7 7 6 7 8 11 11 9 9 9 7 9 12 13 13 13 12 12 12 12 13 12 13 13 12 10 10 10 10 9 10 11 13 13
1 1 1 4 3 3 2 1 3 3 2 2 2 1 4 1 3 3 2 5 7 8 7 6 7 11 3 6 3 6 9 9 7 6 6 8 8 9 10 10 10 9 10 11 11 10 11 11 10 10 12 10 9 7 7 7 6 7 6 7 10 10 10 9 10 10 8 10 11 11 11 12 12 13 13 13 12 10 11 10 10 10 12 10 10 11 12
2 1 2 4 5 1 5 2 1 0 2 2 3 0 5 2 5 4 2 3 6 9 10 10 10 9 1 0 1 4 9 9 11 9 7 7 7 8 9 10 10 9 9 10 10 9 10 11 10 10 11 12 11 8 6 5 5 5 6 7 7 5 4 4 5 5 8 9 9 10 10 12 13 12 12 10 11 10 11 10 11 12 11 11 11 11 13
3 2 1 2 2 5 4 5 4 5 2 4 2 2 7 1 5 4 4 6 7 7 9 10 9 6 4 3 5 6 9 9 9 10 10 8 8 9 8 10 11 12 11 11 11 10 10 10 11 11 11 11 10 9 8 6 3 4 4 5 5 5 6 6 6 5 6 10 11 10 10 12 12 12 12 12 11 10 10 10 11 10 10 10 10 10 12
2 3 2 3 3 3 3 6 3 4 3 3 2 6 5 3 6 5 6 7 7 8 8 9 6 2 2 5 7 10 12 9 8 9 10 10 10 11 10 8 8 10 9 11 11 11 11 11 10 11 11 10 10 9 9 8 5 5 6 6 3 3 5 7 7 6 6 6 8 10 11 11 10 11 10 8 9 10 10 10 10 9 10 10 12 11 11
3 5 3 2 5 4 3 4 2 3 1 1 1 8 1 3 4 4 4 4 5 5 7 6 6 3 3 7 9 10 11 12 12 10 9 9 8 9 10 9 10 8 9 8 9 10 9 9 10 10 10 9 9 9 9 6 7 7 6 6 7 5 4 5 7 9 8 7 7 8 9 10 10 10 10 11 10 12 11 9 10 11 11 11 11 13 12
4 3 3 5 5 6 7 5 4 2 2 3 8 3 3 4 3 1 2 4 4 4 4 5 6 10 10 9 7 8 9 10 10 10 10 10 11 9 8 9 8 8 9 9 9 11 9 9 10 9 9 10 9 9 9 8 8 8 8 7 7 7 7 6 7 8 10 10 8 7 8 9 9 11 11 11 11 11 10 11 13 13 13 11 11 12 11
3 2 2 2 2 2 4 5 2 0 2 5 3 1 2 4 2 2 2 1 3 2 5 6 9 11 12 12 12 9 7 8 9 10 10 10 10 10 11 12 12 9 9 9 8 9 10 10 8 7 9 10 10 9 9 10 9 9 8 7 7 7 7 7 6 6 9 12 11 7 7 8 10 11 10 11 12 12 12 13 13 14 13 12 13 12 12
6 5 5 6 9 5 6 5 4 4 6 2 1 1 3 2 2 2 2 1 2 3 5 7 9 11 13 13 11 14 11 6 8 10 8 8 9 9 9 8 10 9 10 9 9 8 8 8 7 6 6 8 10 10 10 10 10 10 10 8 7 7 7 7 6 6 6 9 12 9 9 8 9 11 11 11 11 11 12 12 12 13 12 12 12 12 12
5 7 8 7 3 5 6 5 3 4 5 2 2 2 3 3 3 3 2 3 3 4 6 8 9 11 11 12 12 12 14 12 8 9 11 9 9 10 10 10 10 10 10 11 10 9 7 6 7 6 6 7 10 11 9 9 10 10 11 11 8 8 8 7 6 6 7 8 11 11 8 8 9 10 12 11 11 11 11 12 12 12 12 11 13 13 12
4 5 8 4 1 3 4 4 4 5 5 4 2 3 4 4 4 3 4 4 4 5 5 8 9 10 12 12 13 12 12 12 11 8 10 12 8 9 9 8 9 10 11 11 11 11 9 7 5 4 5 5 8 9 9 9 9 10 11 11 9 9 10 9 7 7 9 11 11 10 9 8 9 9 11 10 12 11 11 11 12 12 12 11 12 12 12
1 5 2 5 9 5 6 8 5 4 3 5 3 3 5 5 4 4 5 5 5 5 6 9 10 13 13 13 13 11 11 12 12 11 9 10 12 10 11 10 9 10 9 10 11 12 12 8 5 4 5 5 6 6 8 8 9 10 11 11 10 9 10 11 11 10 9 8 8 9 8 8 9 9 10 10 11 11 11 11 12 12 12 12 12 11 13
5 7 3 4 2 3 3 5 3 5 7 6 5 6 4 4 4 4 5 4 6 5 7 8 10 12 12 13 13 11 11 12 13 12 10 9 11 12 10 11 10 9 9 11 12 12 13 11 7 4 4 6 6 6 7 8 8 10 10 10 9 9 11 11 11 10 10 12 11 9 8 8 8 9 10 10 11 12 13 13 14 13 13 12 13 13 12
6 6 11 11 5 7 10 9 8 8 7 5 4 5 5 4 5 6 5 4 6 6 8 8 10 12 13 13 13 14 12 13 13 12 11 9 9 12 14 12 10 10 9 11 13 13 14 12 10 7 6 6 5 5 6 6 7 9 10 11 10 10 11 10 11 10 10 10 9 9 9 9 9 9 9 10 12 12 14 13 13 13 13 13 13 13 12
5 7 8 4 1 4 3 4 8 7 7 6 5 3 4 5 6 5 6 8 6 7 8 9 9 12 12 12 12 15 13 13 14 13 13 11 11 12 12 13 12 11 11 11 12 14 14 12 11 9 7 6 5 5 5 5 7 8 10 10 10 9 8 9 10 10 10 10 10 9 9 9 9 9 12 16 13 12 12 16 20 20 16 14 15 13 13
7 10 10 6 5 4 6 5 3 5 4 5 5 6 6 6 5 5 5 8 10 9 8 8 11 12 12 13 13 15 15 14 14 14 15 14 13 12 12 13 15 13 12 11 12 14 14 12 11 10 7 6 5 4 5 5 7 8 8 9 9 7 7 8 9 10 10 11 10 10 9 9 8 9 10 10 18 21 19 16 17 20 20 21 19 16 14
9 7 4 6 6 7 4 4 5 5 4 5 6 6 6 6 7 5 5 6 9 11 10 10 9 11 12 13 13 17 17 16 16 16 15 15 15 14 13 12 15 16 14 12 12 13 12 12 11 9 9 7 4 5 5 6 6 7 8 8 8 8 7 7 10 11 10 10 11 10 10 9 8 8 9 10 9 12 17 16 14 15 19 21 20 18 18
10 6 4 7 8 7 3 2 3 3 3 4 4 7 7 7 7 5 6 8 7 9 11 13 12 11 13 15 15 16 17 16 15 16 18 18 18 16 13 13 15 15 13 10 10 11 11 12 12 10 10 8 4 4 6 7 7 8 9 9 10 9 9 9 10 11 11 10 9 8 8 9 10 8 9 9 9 9 9 7 8 10 12 16 19 19 18
12 2 2 2 1 2 1 0 2 4 5 5 4 4 7 8 7 6 7 8 9 9 11 12 14 14 12 14 14 16 17 17 17 18 15 15 14 14 15 15 14 12 12 12 11 11 11 12 11 11 10 8 6 5 7 8 7 8 8 10 11 10 9 9 10 10 10 9 9 9 8 9 9 10 9 9 10 10 8 7 8 9 11 14 15 16 17
4 2 3 0 2 4 4 6 5 4 3 3 6 7 7 7 8 8 8 8 10 11 12 12 13 13 14 13 15 17 17 17 16 15 15 16 16 15 14 12 13 14 14 13 12 12 13 12 10 10 10 9 6 6 9 9 9 9 9 9 9 13 19 14 8 9 9 10 9 9 9 9 10 10 10 9 10 10 10 10 10 11 12 13 13 15 16
5 6 9 10 10 8 5 8 7 4 3 4 5 6 7 5 6 9 10 11 10 10 10 11 12 13 14 14 14 16 16 16 16 16 15 16 14 13 13 14 14 14 13 14 14 12 11 10 10 9 10 7 6 4 8 10 10 10 10 10 9 8 9 10 9 9 9 10 10 9 9 9 9 10 10 9 10 10 10 10 10 11 11 10 8 8 15
8 8 8 10 7 2 2 2 1 1 4 4 3 3 4 6 9 9 11 11 11 12 12 12 11 12 13 15 15 16 16 16 16 17 16 15 15 14 13 14 14 13 13 13 13 10 9 9 8 8 7 4 5 6 9 9 8 9 10 10 9 8 8 9 9 9 10 11 11 10 10 10 10 10 9 9 9 9 10 9 10 10 10 8 2 2 1
8 5 6 6 5 2 1 3 5 5 6 5 3 5 5 5 8 9 10 11 11 12 13 13 13 12 13 15 16 17 18 19 18 16 15 15 14 13 13 12 12 12 12 13 12 10 9 8 7 8 6 4 6 8 9 8 8 8 10 11 11 10 9 9 10 10 11 11 12 13 11 10 10 9 8 8 8 9 9 10 9 9 9 7 5 7 9
5 6 6 4 4 3 4 5 5 4 4 4 3 5 6 5 7 9 11 11 11 12 13 12 14 16 15 16 15 17 18 19 18 15 15 14 14 13 12 11 11 10 11 12 10 10 8 7 6 6 6 6 7 7 8 8 7 8 8 8 8 12 14 16 14 10 9 11 11 8 7 7 7 8 8 8 8 8 8 9 8 8 7 7 8 8 7
5 4 5 2 3 3 2 3 4 5 6 3 3 5 5 6 8 11 12 12 12 13 14 14 14 15 16 17 18 18 17 17 17 16 15 14 13 13 12 12 13 14 12 10 9 7 7 6 6 6 5 6 7 7 7 7 7 7 7 9 8 8 9 13 9 10 10 10 9 7 5 5 5 5 7 8 8 8 8 7 8 7 7 7 7 7 1
6 3 0 0 1 1 4 4 4 6 5 5 5 4 5 5 6 8 10 12 12 12 11 12 13 15 16 17 17 16 15 16 14 13 14 13 13 13 12 12 11 11 8 7 6 6 5 5 5 4 4 6 7 7 7 7 7 6 7 7 7 8 10 7 8 9 9 8 7 7 5 3 3 4 5 6 6 7 7 8 7 7 6 6 5 2 1
10 8 8 7 8 7 6 7 5 5 4 3 3 4 4 5 6 8 9 11 11 11 10 12 13 15 15 15 14 13 12 12 10 10 12 13 12 12 11 9 7 7 7 6 6 5 3 2 3 3 4 6 7 7 7 7 6 6 7 6 7 8 7 6 6 6 6 7 7 8 5 4 3 4 4 4 5 5 6 7 8 8 8 5 1 2 2
7 5 5 6 5 5 4 4 4 4 2 3 4 3 4 4 6 8 10 11 10 10 11 12 12 13 13 15 14 15 13 10 11 9 9 9 9 7 8 10 9 8 7 5 4 3 0 2 2 3 5 6 6 7 7 8 7 6 6 5 6 7 6 6 6 6 5 6 6 5 5 5 4 4 4 4 5 5 6 7 7 6 5 5 4 4 5
5 4 2 2 3 3 4 4 3 3 2 2 3 4 4 5 7 8 9 9 9 9 10 11 12 11 13 13 13 15 15 15 8 3 5 6 8 9 9 8 8 7 7 6 4 2 2 3 6 8 6 6 6 6 7 8 6 4 5 5 5 5 5 5 5 5 5 5 5 5 4 5 6 6 6 6 6 6 7 7 7 7 7 7 6 6 6
3 5 4 3 3 4 4 3 4 3 2 1 2 3 4 6 7 8 7 7 8 9 10 10 10 11 11 12 11 12 13 12 11 9 9 10 8 8 7 6 6 5 4 4 4 4 3 4 7 9 6 5 5 6 8 12 6 3 4 4 4 4 4 4 4 4 4 4 4 5 5 5 5 6 6 7 7 7 7 7 8 8 7 7 7 8 8
4 4 4 4 4 4 4 4 3 3 2 1 2 3 4 5 6 6 6 6 8 9 9 9 10 9 10 11 12 13 13 14 13 13 12 12 10 10 9 8 6 5 5 5 5 4 2 5 8 6 5 5 5 5 8 11 7 4 3 3 3 3 4 4 4 4 4 4 5 5 5 6 6 6 6 8 7 6 7 8 8 8 8 9 9 9 9
1 1 1 1 2 3 5 4 3 3 3 2 2 3 4 5 6 6 5 6 8 8 9 9 9 9 10 10 11 12 13 13 12 12 11 10 9 9 9 8 8 7 5 5 5 5 5 5 5 4 5 6 6 5 7 7 5 3 3 3 3 3 4 4 4 4 5 4 4 5 6 6 7 7 6 6 7 7 8 10 9 9 10 10 10 10 10
1 2 3 4 3 3 4 4 5 5 3 2 2 3 4 5 5 5 5 6 7 9 9 8 9 9 10 12 10 9 10 11 13 13 11 9 8 7 6 8 8 6 6 8 6 5 8 10 5 2 4 5 6 4 5 5 4 4 4 3 3 4 4 5 5 4 5 5 6 7 7 7 8 7 7 7 7 8 8 9 9 10 10 11 11 10 10
3 3 2 4 4 4 5 6 5 4 3 3 3 3 4 4 4 5 6 7 7 7 8 9 8 9 10 10 10 10 10 9 9 9 10 10 9 8 7 7 8 6 5 5 6 7 8 7 5 2 2 4 6 5 3 5 4 3 4 4 4 5 5 5 5 5 5 6 6 6 6 7 8 8 8 8 9 9 10 10 11 12 13 13 12 10 10
4 3 2 4 5 5 5 5 5 4 4 3 3 3 4 4 4 5 5 5 6 7 8 9 12 11 9 10 10 10 10 11 9 7 9 9 8 7 6 7 9 8 9 9 10 8 6 6 6 5 3 3 4 7 7 5 4 3 3 5 5 6 6 6 6 5 5 5 5 6 7 7 8 8 9 9 9 9 10 11 12 12 11 12 11 10 11
2 4 4 4 5 6 6 5 5 5 4 3 3 3 3 4 4 5 5 6 7 8 9 8 9 10 10 9 9 9 9 10 11 10 4 5 7 8 7 6 7 7 11 7 6 5 5 5 5 5 8 6 5 8 8 5 4 4 4 4 5 6 7 7 6 5 6 6 6 7 8 8 8 9 9 9 9 9 10 11 11 11 10 10 10 12 11
3 4 4 5 5 5 6 6 5 4 5 3 3 3 4 4 4 5 5 6 7 8 8 8 8 8 9 7 6 7 7 7 7 7 7 5 4 6 7 6 6 8 11 5 5 4 5 5 5 8 12 12 11 10 5 4 5 5 5 6 6 6 7 8 8 7 6 7 7 7 8 9 8 8 8 9 9 9 10 10 10 10 11 11 11 11 12
4 5 5 6 6 6 6 6 6 6 5 4 4 4 4 4 4 4 4 5 6 7 7 7 8 8 7 7 6 6 5 5 6 6 6 7 7 8 8 8 6 6 7 9 5 5 4 5 9 14 12 13 12 10 5 5 5 6 7 7 7 7 7 8 8 7 7 7 7 9 10 8 8 9 9 11 11 10 10 11 11 11 12 12 11 12 12
6 6 5 7 7 6 6 6 6 6 5 5 5 4 3 3 3 3 3 4 4 5 5 6 6 7 7 7 7 7 5 4 5 5 5 6 7 6 7 10 7 8 11 11 5 6 5 14 15 14 14 14 12 7 6 7 7 7 7 6 7 7 6 7 7 7 7 7 7 7 7 7 8 8 9 9 9 11 12 14 11 11 11 11 12 11 10
6 6 5 6 5 5 7 6 6 6 6 6 5 3 1 1 1 2 2 2 3 4 4 5 5 6 7 7 7 6 7 5 4 5 5 5 6 6 9 12 12 15 13 8 6 7 7 9 12 16 15 15 13 6 7 7 7 7 7 8 7 7 7 7 7 7 7 8 10 10 11 10 9 9 10 11 12 11 10 11 10 11 11 11 12 13 15
6 7 5 6 7 6 7 7 6 6 5 5 5 3 0 0 1 1 1 2 3 3 4 4 5 6 6 7 6 6 6 6 5 6 6 5 4 4 5 6 10 14 14 14 15 13 20 18 18 17 17 14 8 7 8 8 9 9 8 8 8 8 7 7 6 7 8 9 8 7 7 8 8 8 9 9 10 11 11 11 11 9 10 12 13 14 14
6 7 6 5 6 7 7 6 5 5 5 4 4 1 0 0 1 2 2 3 3 3 3 4 4 5 5 5 6 6 6 6 6 6 6 6 6 6 7 9 14 14 10 9 10 9 17 20 19 18 18 13 8 8 8 8 9 9 9 8 8 8 8 8 7 7 8 9 9 9 9 9 9 9 9 10 10 10 12 13 13 12 11 11 12 12 12
5 6 6 5 6 6 6 5 5 5 5 4 4 1 0 1 3 3 2 3 3 4 3 3 4 4 4 4 5 5 5 6 6 6 7 6 7 7 8 9 10 14 15 10 11 10 14 20 19 17 12 7 8 9 9 9 9 9 9 9 9 8 9 11 12 13 10 10 10 11 10 9 9 12 10 10 11 12 13 13 13 15 19 14 12 11 10
5 5 4 4 4 4 5 5 6 5 5 5 4 1 1 0 1 3 3 4 4 4 4 4 4 4 4 4 4 5 5 5 7 9 7 7 8 10 11 9 10 11 11 11 9 9 8 9 9 11 10 9 8 9 9 9 8 9 10 10 9 7 8 9 9 10 10 10 10 10 10 9 10 10 10 10 11 11 11 11 11 10 10 10 9 9 10
4 5 4 4 4 4 4 4 5 5 5 5 2 0 2 1 1 2 4 6 4 4 4 5 5 4 4 4 4 5 5 7 7 6 8 8 8 8 9 12 9 10 9 9 9 9 9 10 12 14 14 11 10 9 11 13 10 10 10 10 10 9 10 9 9 9 9 10 9 9 10 9 9 9 9 9 10 10 10 10 10 10 10 8 8 9 8
Wind_Direction
359 6 321 9 31 330 301 298 299 323 313 354 44 271 199 133 144 195 276 319 337 315 16 348 8 3 40 36 15 3 346 0 6 8 14 18 17 12 18 20 20 16 16 13 14 19 18 22 22 19 24 14 344 217 201 197 194 195 193 192 196 197 199 202 205 205 204 204 205 205 204 204 207 208 208 207 206 206 204 206 206 208 207 204 200 200 201
28 350 9 356 38 342 337 290 266 254 280 286 252 259 243 164 205 212 251 280 260 323 1 356 23 7 28 40 14 11 16 7 4 8 14 16 13 10 11 9 8 8 7 7 10 15 22 23 18 17 18 13 10 1 293 208 196 197 187 194 196 199 202 206 205 203 201 202 202 201 201 204 206 206 207 207 206 208 209 210 210 206 207 208 208 206 204
358 308 348 8 339 184 303 276 268 268 253 261 260 226 292 241 359 33 327 265 317 240 360 20 61 46 78 54 35 27 11 7 8 7 8 7 7 6 4 3 1 353 353 360 6 12 17 18 17 16 11 7 4 3 4 353 261 202 191 195 198 200 205 206 203 200 199 202 199 201 203 204 204 204 207 206 207 209 211 211 211 208 206 209 212 212 210
313 281 314 286 285 274 224 291 307 292 340 24 340 305 256 63 250 330 343 35 288 311 353 360 56 37 40 43 30 21 16 6 7 7 2 359 1 2 359 356 356 357 353 352 354 360 3 7 11 11 8 3 360 1 357 346 336 295 206 199 200 203 206 204 200 199 201 199 199 204 201 203 202 203 203 204 207 208 210 211 212 207 210 213 215 215 214
253 247 236 279 327 40 36 16 23 327 274 273 292 285 271 225 189 87 272 224 358 303 323 14 26 47 36 38 25 23 13 10 5 6 359 353 353 355 355 356 355 352 345 342 341 347 353 358 1 357 358 359 357 351 347 341 329 325 258 210 203 205 205 201 201 200 199 198 202 203 203 202 201 198 199 203 207 208 210 211 205 206 213 214 216 216 217
243 295 306 279 57 40 242 236 278 238 255 294 314 289 304 344 57 164 188 221 292 341 10 16 357 21 31 34 16 1 15 358 1 359 358 351 345 347 352 353 350 343 342 340 336 337 342 350 351 341 341 338 344 333 337 347 358 348 333 244 211 207 204 202 202 199 197 199 201 204 203 201 200 201 201 206 208 208 210 205 205 211 212 214 216 214 216
288 310 347 44 26 219 249 293 289 264 243 255 236 277 350 27 42 56 47 353 1 329 334 335 337 317 301 21 23 16 9 12 9 354 350 348 346 342 343 347 348 344 338 337 337 333 342 344 340 344 340 341 326 345 351 12 10 3 358 344 273 230 212 209 204 199 198 199 202 202 201 199 199 202 204 208 208 208 205 205 207 212 212 213 215 215 218
24 41 32 79 255 240 304 291 311 336 77 353 56 325 3 58 57 45 58 318 312 304 313 334 320 306 272 186 85 42 15 8 1 356 347 340 337 339 338 340 338 340 336 335 335 328 326 334 339 343 338 334 332 339 353 15 22 29 13 1 7 9 342 287 231 207 202 203 204 202 199 198 199 203 205 205 207 205 207 212 215 217 219 220 218 219 220
193 196 124 214 307 341 340 11 356 26 61 355 43 268 274 87 47 47 342 329 338 337 335 336 346 330 307 181 237 25 16 357 347 342 328 329 324 326 327 332 327 326 328 329 325 323 323 331 338 343 333 327 326 329 4 2 28 32 28 12 19 20 8 351 334 309 261 218 207 203 201 200 203 205 206 207 209 202 208 211 210 211 217 213 218 219 219
116 121 354 360 28 299 275 228 233 162 300 269 254 214 282 39 35 28 19 352 341 338 337 344 345 326 31 44 257 359 3 350 336 332 320 318 319 320 324 327 324 329 330 325 324 328 325 326 338 338 333 328 326 327 344 355 14 44 41 27 33 25 359 329 299 285 296 288 250 217 205 206 207 209 208 208 208 200 207 208 212 215 212 218 219 218 219
54 81 140 204 165 242 206 220 220 252 224 232 250 84 278 150 18 4 15 7 356 346 333 335 343 8 32 284 303 337 343 336 331 327 323 323 321 319 324 326 327 328 330 328 326 327 330 334 338 338 335 331 328 330 333 332 32 30 32 38 19 0 337 323 314 298 229 217 235 233 218 214 212 211 208 207 207 202 208 211 218 218 216 220 221 221 220
159 137 125 237 206 232 253 210 211 235 217 206 96 342 282 11 339 351 12 7 357 339 336 334 347 16 333 303 319 330 322 321 316 318 315 319 324 322 319 315 320 319 319 325 329 334 337 337 333 341 342 337 334 333 330 329 3 22 5 349 349 340 335 322 314 306 311 284 235 225 219 217 214 213 210 207 203 203 208 211 217 215 218 219 222 223 220
199 192 242 331 295 266 242 243 236 281 233 70 198 222 243 298 305 326 11 357 346 347 339 343 330 267 313 306 304 306 309 316 317 314 313 307 310 312 314 312 320 319 323 319 320 324 329 330 336 340 343 338 335 332 326 328 353 351 342 330 323 336 320 318 317 315 305 295 281 250 228 219 214 213 210 212 208 211 212 209 216 221 219 220 222 228 224
182 190 182 233 254 237 192 238 231 246 99 165 218 224 171 218 286 336 9 327 323 341 314 314 296 300 304 299 301 306 304 302 301 305 305 311 316 314 310 313 315 321 321 319 320 323 326 335 340 342 344 339 331 334 328 332 344 332 327 325 319 326 324 319 319 311 302 291 285 274 246 226 215 214 211 209 210 210 211 212 216 220 221 221 224 228 228
85 96 105 8 311 274 146 167 42 148 152 229 197 236 223 182 206 289 305 229 279 316 307 302 300 300 306 313 313 308 297 295 300 302 307 309 310 311 318 319 320 321 321 319 314 318 321 329 338 340 342 336 334 332 327 326 330 326 322 318 318 315 304 295 288 292 304 298 284 277 259 235 225 222 214 212 211 210 210 212 215 219 220 221 225 229 231
153 163 178 198 214 189 197 141 170 214 210 216 145 105 296 168 163 238 235 235 238 282 289 297 297 296 300 302 306 311 306 295 298 301 299 300 297 303 297 297 305 310 309 305 308 310 314 316 326 336 338 330 328 329 325 327 321 323 320 315 316 301 288 281 279 279 283 282 278 273 266 249 229 224 221 216 214 212 212 213 215 218 221 220 223 228 228
154 192 210 235 242 187 196 188 201 205 246 226 213 176 208 243 251 199 248 250 255 266 280 281 282 288 283 284 293 295 297 300 295 296 301 295 296 297 298 299 304 309 304 302 303 298 304 305 318 326 329 323 325 324 325 321 323 321 319 316 316 306 294 285 281 278 270 260 263 268 267 257 240 227 223 217 216 215 213 216 216 218 221 217 221 225 227
269 253 207 184 203 253 251 250 223 232 248 255 206 223 248 214 210 199 239 250 250 267 265 277 278 273 280 285 285 285 287 292 292 288 288 295 289 291 295 295 302 304 303 302 300 298 300 303 292 311 319 317 319 315 317 321 321 322 318 315 315 310 300 291 278 253 255 262 261 264 261 257 250 232 225 217 218 216 214 218 217 219 221 219 224 225 227
65 269 334 184 221 214 218 225 250 255 226 231 207 221 216 224 216 229 228 239 245 246 261 263 270 275 278 279 276 273 282 286 288 285 277 281 290 292 293 292 299 302 304 303 300 301 297 304 297 295 307 305 303 308 314 322 327 325 319 310 312 308 298 296 292 284 269 255 264 269 267 265 251 240 228 220 219 219 216 215 218 219 219 218 223 224 229
179 234 225 234 213 209 206 189 220 248 247 241 230 217 208 213 231 230 247 244 253 239 253 254 264 270 275 278 279 279 274 279 282 280 277 273 284 288 285 288 288 286 289 291 292 295 297 300 301 283 284 294 301 311 316 320 325 322 311 305 300 303 298 295 290 285 280 276 273 272 273 269 264 252 232 220 220 217 213 214 215 219 217 215 219 220 224
265 314 275 257 245 248 245 236 232 235 238 234 225 210 221 240 260 268 262 227 246 246 254 255 264 270 269 269 274 275 275 272 272 274 273 269 266 279 288 287 285 283 282 285 287 288 289 295 297 294 285 284 298 313 315 318 322 319 309 304 304 299 295 290 287 287 285 285 282 280 278 278 269 258 251 232 225 225 222 219 216 213 211 214 213 216 218
266 227 247 123 129 273 287 248 216 215 219 204 215 222 253 251 260 274 293 297 275 252 254 255 258 267 271 273 275 275 272 268 268 272 275 275 271 270 274 283 282 277 275 276 281 283 285 289 293 294 296 297 299 305 302 310 313 310 307 301 294 289 286 284 285 289 292 292 290 285 279 277 282 277 252 243 236 228 230 224 225 225 216 214 212 210 214
239 239 233 188 191 242 225 222 212 200 186 175 203 224 237 254 255 263 280 291 297 291 270 251 260 261 266 271 273 274 271 269 269 270 271 272 272 268 269 277 281 276 272 273 277 279 280 283 286 290 291 296 289 284 292 300 308 300 299 294 288 284 287 287 288 289 288 285 283 281 278 280 281 283 289 265 243 237 236 232 221 225 226 230 231 220 211
247 252 229 172 168 211 237 216 206 220 196 183 224 242 237 246 257 263 264 266 282 289 287 276 258 262 268 267 268 269 270 269 267 267 265 263 263 264 263 262 270 275 273 270 268 271 278 280 282 285 289 290 282 291 296 303 304 299 298 291 285 284 280 275 277 276 272 274 280 285 290 288 282 287 283 276 260 241 236 239 249 237 228 229 231 227 221
232 231 194 183 199 224 219 189 193 211 210 190 218 247 249 253 258 251 266 276 271 281 289 287 282 272 270 272 268 266 269 269 265 264 265 264 260 257 254 252 255 261 266 265 266 270 273 275 277 281 286 287 287 291 300 304 303 300 298 295 292 290 289 291 290 286 281 280 282 282 288 291 292 288 285 286 276 267 250 236 241 254 255 242 234 230 228
238 231 101 135 137 210 178 104 300 245 240 216 232 254 258 254 257 264 269 278 284 283 277 276 278 276 269 268 267 266 266 265 264 266 261 257 257 258 256 257 260 265 266 264 262 264 265 266 270 277 280 285 300 302 305 307 304 299 294 294 292 290 290 291 293 289 290 294 296 298 297 297 293 287 282 280 280 272 259 240 246 257 249 237 233 234 237
261 172 121 322 283 257 194 187 233 221 217 209 212 237 250 254 271 278 279 273 273 278 274 272 270 272 274 269 269 266 265 264 257 255 254 257 255 254 254 255 255 257 258 261 262 261 259 258 261 269 276 287 299 303 309 311 306 301 295 291 289 292 298 303 297 296 298 298 294 288 287 285 286 285 285 285 279 269 252 242 234 231 234 238 227 206 219
217 196 186 207 231 223 209 221 224 259 261 239 233 244 257 278 286 284 283 284 286 279 278 275 278 278 276 273 270 271 270 268 266 262 256 253 252 251 249 249 250 251 254 255 257 253 248 249 255 262 271 280 294 298 309 310 308 305 303 297 293 291 295 301 299 297 293 288 279 273 275 274 272 273 278 281 280 274 259 248 241 237 247 239 239 215 222
221 206 204 218 232 190 133 106 100 211 253 255 245 261 280 285 282 283 284 288 293 296 291 286 279 274 273 274 270 267 264 260 259 258 256 254 251 248 246 248 247 248 247 249 250 239 231 234 244 256 263 279 293 306 308 306 303 305 306 305 302 302 305 306 304 301 296 288 277 269 263 262 261 266 269 274 274 276 271 257 245 245 247 252 263 291 50
224 190 189 214 226 193 177 269 258 254 252 261 278 273 268 274 286 286 290 294 298 297 295 295 293 282 274 272 271 264 266 264 256 255 252 253 250 246 244 243 245 245 245 244 238 225 223 226 240 253 268 281 298 301 303 300 298 299 299 300 299 301 303 307 305 297 292 286 279 272 265 254 253 250 257 268 274 278 276 265 261 256 252 244 225 236 230
190 169 178 179 162 150 178 231 248 258 264 270 261 274 284 278 275 290 294 296 296 295 295 291 287 287 284 281 276 269 266 262 257 253 251 248 247 246 242 235 234 235 236 234 221 217 216 225 236 256 273 291 296 296 294 292 292 296 295 295 295 294 295 294 289 288 288 286 279 281 289 286 256 244 245 251 258 263 266 269 269 261 259 254 245 242 245
140 142 145 147 141 157 220 246 248 260 258 260 277 278 277 285 297 299 302 304 300 301 301 303 304 308 304 296 291 281 270 259 250 248 244 243 245 245 240 235 234 238 235 216 201 196 206 223 242 261 284 289 293 292 287 284 286 290 292 299 298 298 293 290 297 302 300 292 295 291 293 309 317 296 260 247 250 255 258 263 264 264 259 253 250 254 201
134 107 47 181 126 180 252 244 217 251 250 252 246 254 267 274 277 288 294 298 302 308 310 310 312 310 307 302 293 279 266 258 246 238 239 242 240 242 240 237 236 231 207 180 172 180 194 216 243 265 283 296 294 290 283 278 278 281 294 298 294 294 298 304 302 303 300 302 298 296 306 320 327 330 333 315 284 259 255 258 260 261 257 256 266 28 102
170 180 185 182 174 189 210 243 212 223 244 249 251 263 278 285 287 299 297 303 313 316 317 317 318 317 317 318 307 292 262 248 240 232 234 234 233 232 231 225 180 158 149 147 146 156 168 226 254 273 297 304 298 291 284 284 278 278 296 298 296 293 299 303 308 311 309 310 309 313 320 334 6 354 343 343 340 324 280 249 245 245 249 244 50 4 319
174 180 165 179 182 187 180 185 181 188 195 262 288 284 282 288 304 304 313 325 327 321 317 321 323 325 330 341 338 341 325 251 231 239 238 234 224 189 148 136 133 126 127 132 133 125 85 293 294 308 316 312 300 289 292 290 285 293 306 299 297 299 308 312 321 319 320 317 317 323 349 0 11 13 10 15 23 23 26 24 21 14 21 40 42 28 24
147 144 157 168 187 188 184 182 173 160 175 212 254 283 298 313 318 322 327 328 324 323 328 332 329 333 345 347 348 347 344 348 342 321 258 212 148 138 133 130 131 129 122 111 98 108 67 335 349 338 327 313 304 304 301 297 301 319 308 309 310 310 315 322 328 328 330 333 332 339 359 27 29 31 33 41 46 38 41 49 45 43 48 48 47 42 32
169 171 181 179 186 175 181 177 163 157 179 238 292 312 327 327 329 324 329 337 340 338 337 338 340 345 350 350 348 351 352 348 350 10 37 46 60 75 86 92 94 103 101 84 50 41 42 356 349 339 343 323 316 306 305 308 318 351 329 312 320 324 328 331 334 340 347 356 352 348 17 36 46 39 37 50 50 51 50 51 54 56 48 48 51 51 47
193 173 169 181 178 170 177 167 160 144 115 46 352 338 340 328 328 334 340 341 342 339 344 348 346 344 354 358 357 0 359 353 355 10 25 38 41 54 52 55 57 52 46 35 18 15 355 6 5 3 333 322 312 315 307 314 343 358 333 329 342 351 348 359 355 3 12 11 18 18 28 46 52 47 44 53 58 58 67 64 62 57 55 51 49 50 49
109 128 135 102 109 121 117 123 119 92 90 83 4 348 350 344 345 342 345 351 343 344 349 347 350 356 1 7 11 0 0 358 357 5 15 22 33 44 43 39 34 29 30 25 20 7 356 15 16 1 340 321 316 316 310 331 9 18 5 3 3 31 27 27 14 22 20 19 27 35 40 50 52 52 46 47 56 59 62 70 73 71 65 58 55 54 53
292 242 192 138 134 133 117 108 92 96 102 102 56 6 336 344 345 359 358 352 349 353 351 347 5 8 6 8 7 7 4 7 3 360 6 8 17 28 32 29 20 9 12 26 22 10 5 0 358 345 331 324 318 314 323 353 28 24 15 31 46 57 52 43 37 33 35 32 41 48 48 50 55 52 50 51 57 62 66 66 65 66 67 66 62 60 60
258 247 204 151 148 139 130 116 104 105 86 55 38 11 351 350 346 6 6 2 355 356 357 359 9 17 13 9 5 360 355 9 21 16 5 8 10 10 16 17 353 346 2 24 24 26 10 359 341 332 320 337 314 358 6 16 16 20 46 52 68 72 68 54 52 43 43 48 48 45 52 56 60 57 57 60 62 65 67 68 70 72 73 73 71 66 62
252 248 191 147 146 139 129 129 122 91 63 44 35 24 9 359 11 18 8 6 8 7 7 1 16 23 17 12 8 6 1 356 355 14 20 14 16 8 14 7 347 337 22 30 23 12 350 344 345 356 10 19 0 28 43 32 7 13 63 71 70 77 78 73 61 56 53 48 50 53 57 63 64 65 64 64 64 63 66 70 71 70 67 67 69 67 69
205 211 194 158 143 137 137 131 121 115 93 57 41 30 18 12 16 18 19 22 21 16 11 4 6 10 11 5 7 9 7 359 357 346 4 43 24 4 8 7 337 345 21 30 24 356 351 332 350 347 29 42 44 44 43 27 25 35 61 77 81 78 82 80 73 61 59 59 60 64 64 64 66 73 73 69 67 65 66 67 69 71 71 69 69 69 66
192 178 181 151 142 144 138 129 122 104 91 68 52 51 38 30 22 34 34 31 28 26 22 9 6 7 3 357 360 5 1 355 354 352 348 349 9 24 357 10 351 0 24 25 12 7 355 355 8 30 32 39 43 44 37 26 42 46 58 71 76 77 80 81 76 66 62 62 61 56 65 71 69 70 73 72 73 72 68 67 69 71 73 72 71 72 73
170 171 166 148 145 143 146 143 136 127 128 116 81 58 40 34 40 35 34 28 28 31 24 15 6 3 359 356 355 352 349 356 354 355 354 8 13 9 358 27 22 14 17 31 9 6 353 19 33 41 47 44 45 43 32 30 38 52 56 59 65 68 74 75 73 67 57 55 63 71 73 67 65 70 74 78 77 74 72 73 72 71 72 73 72 75 75
178 172 156 144 147 168 162 143 129 117 108 94 73 56 43 38 37 36 39 43 40 27 20 11 359 355 355 356 351 349 338 358 9 9 17 357 11 3 3 21 12 27 34 32 15 12 10 41 44 43 46 49 44 35 33 42 46 48 48 49 56 53 48 58 67 75 73 65 59 51 52 61 73 71 72 73 75 80 80 78 74 71 71 73 71 64 64
156 149 146 152 154 147 130 126 123 111 99 88 80 68 33 13 19 42 47 58 54 34 13 360 346 348 347 352 352 351 351 347 13 14 17 15 8 16 25 29 29 26 22 17 25 31 30 39 44 46 48 48 46 37 34 39 41 43 48 52 50 52 54 54 55 58 60 68 74 77 78 75 69 69 73 75 77 74 75 74 69 67 65 64 68 71 74
151 142 148 152 137 135 128 126 125 128 128 127 141 114 43 302 323 334 38 68 42 40 16 351 344 344 349 351 353 356 352 352 358 16 4 9 10 10 20 38 39 39 34 21 20 28 38 42 45 46 46 43 36 39 42 46 49 46 44 46 47 48 50 52 51 58 65 66 65 55 55 62 65 71 72 73 77 81 82 79 78 75 72 71 72 76 78
148 137 139 130 129 136 135 137 140 138 143 146 122 147 211 8 359 354 4 29 38 52 38 21 358 356 349 353 4 357 356 6 18 11 6 17 21 29 33 35 39 37 34 33 27 18 34 38 43 46 45 40 32 37 42 46 50 54 50 48 45 49 53 57 60 63 67 71 69 70 66 66 67 66 69 74 74 75 77 79 79 80 81 83 83 83 80
112 116 126 132 137 144 147 143 151 151 146 133 136 164 282 66 38 356 5 34 53 79 56 25 11 350 341 339 347 1 4 7 13 27 24 23 38 41 39 40 39 40 42 39 36 32 32 35 35 38 37 37 41 45 43 45 50 54 53 51 52 51 59 64 65 66 67 72 75 77 75 74 77 78 76 76 76 76 79 80 80 79 77 82 86 83 78
140 137 136 150 159 158 155 156 159 147 136 128 151 201 150 72 67 47 31 53 45 57 51 35 19 354 333 347 354 4 12 23 30 33 34 34 37 45 48 46 44 45 44 43 36 34 30 34 37 33 27 28 31 40 44 46 44 52 56 52 45 40 47 55 61 65 66 68 71 72 71 69 68 70 70 70 69 68 65 66 64 65 68 67 62 61 67
88 86 89 88 99 108 117 119 122 118 120 118 127 148 131 99 69 30 27 56 73 72 67 57 37 10 17 15 17 15 20 39 35 26 36 38 40 40 46 49 50 47 45 44 39 36 33 34 39 43 42 35 32 33 41 45 46 48 50 51 49 46 46 45 42 47 57 59 58 59 58 56 59 65 63 65 67 67 66 64 66 68 69 63 62 63 66